| time (UTC) | temp F | wind direction | speed MPH | gust MPH | rain 1hr in | rain 24hr in | rain mn in | humidity % | barometer mb |
| 20260502163934 | 57 | 299 | 2.0 | 7.0 | 0.00 | 0.01 | 0.01 | 59 | 1010.3 |
| 20260502162939 | 56 | 285 | 2.0 | 3.0 | 0.00 | 0.01 | 0.01 | 59 | 1010.5 |
| 20260502161905 | 57 | 300 | 2.0 | 3.0 | 0.00 | 0.01 | 0.01 | 65 | 1010.5 |
| 20260502160924 | 58 | 233 | 2.0 | 6.0 | 0.00 | 0.01 | 0.01 | 61 | 1010.6 |
| 20260502151921 | 56 | 315 | 0.0 | 3.0 | 0.00 | 0.01 | 0.01 | 71 | 1011.0 |
| 20260502150906 | 55 | 317 | 1.0 | 2.0 | 0.00 | 0.01 | 0.01 | 73 | 1011.3 |
| 20260502122913 | 51 | 292 | 2.0 | 2.0 | 0.00 | 0.01 | 0.01 | 80 | 1011.8 |
| 20260502121933 | 50 | 294 | 1.0 | 1.0 | 0.00 | 0.01 | 0.01 | 81 | 1011.3 |
| 20260502120919 | 50 | 263 | 2.0 | 3.0 | 0.00 | 0.01 | 0.01 | 81 | 1011.3 |
| 20260502115724 | 49 | 308 | 1.0 | 2.0 | 0.00 | 0.01 | 0.01 | 83 | 1011.3 |
| 20260502114743 | 49 | 317 | 0.0 | 1.0 | 0.00 | 0.01 | 0.01 | 82 | 1011.0 |
| 20260502113729 | 48 | 320 | 1.0 | 2.0 | 0.00 | 0.01 | 0.01 | 82 | 1011.2 |
| 20260502112747 | 48 | 290 | 1.0 | 1.0 | 0.00 | 0.01 | 0.01 | 84 | 1011.2 |
| 20260502111733 | 48 | 319 | 1.0 | 1.0 | 0.00 | 0.01 | 0.01 | 84 | 1011.1 |
| 20260502110739 | 48 | 323 | 1.0 | 2.0 | 0.00 | 0.01 | 0.01 | 84 | 1011.2 |
| 20260502105738 | 47 | 0.0 | 0.0 | 0.00 | 0.01 | 0.01 | 83 | 1010.9 | |
| 20260502104744 | 47 | 314 | 1.0 | 1.0 | 0.00 | 0.01 | 0.01 | 83 | 1011.2 |
| 20260502103744 | 47 | 325 | 1.0 | 3.0 | 0.00 | 0.01 | 0.01 | 84 | 1011.2 |
| 20260502102750 | 47 | 318 | 0.0 | 1.0 | 0.00 | 0.01 | 0.01 | 85 | 1010.7 |
| 20260502101749 | 46 | 0.0 | 0.0 | 0.00 | 0.01 | 0.01 | 86 | 1010.6 | |
| 20260502100735 | 45 | 313 | 0.0 | 1.0 | 0.01 | 0.01 | 0.01 | 87 | 1010.8 |
| 20260502090750 | 47 | 0.0 | 0.0 | 0.00 | 0.00 | 0.00 | 83 | 1010.6 | |
| 20260502070746 | 49 | 0.0 | 0.0 | 0.00 | 0.00 | 0.00 | 71 | 1010.8 | |
| 20260502065752 | 49 | 304 | 0.0 | 1.0 | 0.00 | 0.00 | 0.00 | 71 | 1010.9 |
| 20260502064752 | 49 | 304 | 1.0 | 1.0 | 0.00 | 0.00 | 0.00 | 72 | 1010.8 |
| 20260502063838 | 49 | 305 | 0.0 | 1.0 | 0.00 | 0.00 | 0.00 | 72 | 1010.9 |
| 20260502062817 | 49 | 305 | 0.0 | 1.0 | 0.00 | 0.00 | 0.00 | 70 | 1010.7 |
| 20260502061743 | 48 | 307 | 0.0 | 1.0 | 0.00 | 0.00 | 0.00 | 71 | 1010.8 |
| 20260502060749 | 49 | 307 | 1.0 | 1.0 | 0.00 | 0.00 | 0.00 | 70 | 1010.7 |
| 20260502055748 | 48 | 307 | 0.0 | 1.0 | 0.00 | 0.00 | 0.00 | 70 | 1010.8 |
| 20260502054734 | 48 | 307 | 1.0 | 1.0 | 0.00 | 0.00 | 0.00 | 69 | 1010.9 |
| 20260502053753 | 48 | 0.0 | 0.0 | 0.00 | 0.00 | 0.00 | 71 | 1010.9 | |
| 20260502052738 | 46 | 0.0 | 0.0 | 0.00 | 0.00 | 0.00 | 74 | 1010.8 | |
| 20260502051756 | 46 | 308 | 0.0 | 1.0 | 0.00 | 0.00 | 0.00 | 73 | 1010.8 |
| 20260502050742 | 46 | 308 | 0.0 | 1.0 | 0.00 | 0.00 | 0.00 | 72 | 1010.8 |
| 20260502045800 | 46 | 308 | 1.0 | 1.0 | 0.00 | 0.00 | 0.00 | 69 | 1010.8 |
| 20260502044746 | 47 | 0.0 | 0.0 | 0.00 | 0.00 | 0.00 | 69 | 1011.0 | |
| 20260502043732 | 47 | 0.0 | 0.0 | 0.00 | 0.00 | 0.00 | 67 | 1011.1 | |
| 20260502042751 | 48 | 0.0 | 0.0 | 0.00 | 0.00 | 0.00 | 66 | 1010.8 | |
| 20260502041736 | 48 | 0.0 | 0.0 | 0.00 | 0.00 | 0.00 | 66 | 1010.9 | |
| 20260502040755 | 48 | 0.0 | 0.0 | 0.00 | 0.00 | 0.00 | 67 | 1011.0 | |
| 20260502035741 | 48 | 0.0 | 0.0 | 0.00 | 0.00 | 0.00 | 66 | 1010.9 | |
| 20260502034800 | 49 | 0.0 | 0.0 | 0.00 | 0.00 | 0.00 | 64 | 1010.9 | |
| 20260502033746 | 50 | 308 | 0.0 | 1.0 | 0.00 | 0.00 | 0.00 | 58 | 1011.2 |
| 20260502032804 | 50 | 0.0 | 1.0 | 0.00 | 0.00 | 0.00 | 60 | 1010.8 | |
| 20260502031750 | 50 | 308 | 1.0 | 2.0 | 0.00 | 0.00 | 0.00 | 61 | 1010.8 |
| 20260502030756 | 48 | 294 | 2.0 | 3.0 | 0.00 | 0.00 | 0.00 | 58 | 1010.7 |
| 20260502025756 | 47 | 331 | 0.0 | 1.0 | 0.00 | 0.00 | 0.00 | 72 | 1010.8 |
| 20260502024742 | 47 | 345 | 0.0 | 1.0 | 0.00 | 0.00 | 0.00 | 70 | 1010.6 |
| 20260502023801 | 47 | 0.0 | 0.0 | 0.00 | 0.00 | 0.00 | 69 | 1010.6 | |
| 20260502022747 | 48 | 0.0 | 0.0 | 0.00 | 0.00 | 0.00 | 67 | 1010.7 | |
| 20260502021806 | 47 | 0.0 | 0.0 | 0.00 | 0.00 | 0.00 | 65 | 1010.5 | |
| 20260502020752 | 48 | 0.0 | 0.0 | 0.00 | 0.00 | 0.00 | 66 | 1010.7 | |
| 20260502015738 | 49 | 0.0 | 0.0 | 0.00 | 0.00 | 0.00 | 60 | 1010.5 | |
| 20260502014757 | 50 | 0.0 | 0.0 | 0.00 | 0.00 | 0.00 | 58 | 1010.4 | |
| 20260502013743 | 50 | 0.0 | 0.0 | 0.00 | 0.00 | 0.00 | 56 | 1010.5 | |
| 20260502012802 | 50 | 0.0 | 0.0 | 0.00 | 0.00 | 0.00 | 56 | 1010.4 | |
| 20260502011748 | 51 | 0.0 | 0.0 | 0.00 | 0.00 | 0.00 | 54 | 1010.4 | |
| 20260502010828 | 52 | 0.0 | 0.0 | 0.00 | 0.00 | 0.00 | 51 | 1010.3 | |
| 20260502005813 | 52 | 0.0 | 0.0 | 0.00 | 0.00 | 0.00 | 54 | 1010.3 | |
| 20260502004812 | 52 | 0.0 | 0.0 | 0.00 | 0.00 | 0.00 | 51 | 1009.9 | |
| 20260502003757 | 53 | 0.0 | 0.0 | 0.00 | 0.00 | 0.00 | 49 | 1009.9 | |
| 20260502002743 | 54 | 344 | 0.0 | 1.0 | 0.00 | 0.00 | 0.00 | 48 | 1009.6 |
| 20260502001802 | 55 | 0.0 | 0.0 | 0.00 | 0.00 | 0.00 | 46 | 1009.8 | |
| 20260502000748 | 55 | 0.0 | 0.0 | 0.00 | 0.00 | 0.00 | 44 | 1009.5 | |
| 20260501235807 | 56 | 0.0 | 0.0 | 0.00 | 0.00 | 0.00 | 44 | 1009.1 | |
| 20260501234753 | 57 | 0.0 | 0.0 | 0.00 | 0.00 | 0.00 | 39 | 1009.2 | |
| 20260501233812 | 58 | 0.0 | 0.0 | 0.00 | 0.00 | 0.00 | 38 | 1009.0 | |
| 20260501232818 | 59 | 0.0 | 1.0 | 0.00 | 0.00 | 0.00 | 37 | 1008.9 | |
| 20260501231817 | 60 | 324 | 1.0 | 2.0 | 0.00 | 0.00 | 0.00 | 36 | 1008.6 |
| 20260501230803 | 60 | 0.0 | 0.0 | 0.00 | 0.00 | 0.00 | 34 | 1008.6 | |
| 20260501225749 | 61 | 0.0 | 1.0 | 0.00 | 0.00 | 0.00 | 33 | 1008.5 | |
| 20260501224808 | 61 | 307 | 1.0 | 3.0 | 0.00 | 0.00 | 0.00 | 33 | 1008.2 |
| 20260501223754 | 61 | 325 | 1.0 | 2.0 | 0.00 | 0.00 | 0.00 | 32 | 1008.2 |
| 20260501222814 | 62 | 324 | 1.0 | 2.0 | 0.00 | 0.00 | 0.00 | 31 | 1008.2 |
| 20260501221759 | 62 | 326 | 0.0 | 2.0 | 0.00 | 0.00 | 0.00 | 31 | 1008.1 |
| 20260501220839 | 63 | 0.0 | 3.0 | 0.00 | 0.00 | 0.00 | 31 | 1008.0 | |
| 20260501215805 | 63 | 10 | 1.0 | 2.0 | 0.00 | 0.00 | 0.00 | 31 | 1008.0 |
| 20260501214749 | 63 | 335 | 1.0 | 2.0 | 0.00 | 0.00 | 0.00 | 30 | 1007.9 |
| 20260501213808 | 63 | 331 | 1.0 | 3.0 | 0.00 | 0.00 | 0.00 | 31 | 1007.7 |
| 20260501212754 | 63 | 1 | 0.0 | 1.0 | 0.00 | 0.00 | 0.00 | 33 | 1007.8 |
| 20260501211813 | 62 | 309 | 2.0 | 3.0 | 0.00 | 0.00 | 0.00 | 33 | 1007.9 |
| 20260501210759 | 62 | 329 | 3.0 | 7.0 | 0.00 | 0.00 | 0.00 | 32 | 1007.7 |
| 20260501205818 | 62 | 332 | 1.0 | 6.0 | 0.00 | 0.00 | 0.00 | 32 | 1007.7 |
| 20260501204804 | 63 | 302 | 2.0 | 3.0 | 0.00 | 0.00 | 0.00 | 34 | 1007.6 |
| 20260501203824 | 63 | 331 | 2.0 | 5.0 | 0.00 | 0.00 | 0.00 | 33 | 1007.5 |
| 20260501202810 | 62 | 300 | 2.0 | 5.0 | 0.00 | 0.00 | 0.00 | 35 | 1007.4 |
| 20260501201816 | 61 | 326 | 2.0 | 3.0 | 0.00 | 0.00 | 0.00 | 36 | 1007.6 |
| 20260501200815 | 63 | 299 | 2.0 | 7.0 | 0.00 | 0.00 | 0.00 | 35 | 1007.6 |
| 20260501195801 | 62 | 321 | 1.0 | 2.0 | 0.00 | 0.00 | 0.00 | 37 | 1007.7 |
| 20260501194821 | 62 | 347 | 1.0 | 3.0 | 0.00 | 0.00 | 0.00 | 38 | 1007.7 |
| 20260501193807 | 60 | 299 | 2.0 | 3.0 | 0.00 | 0.00 | 0.00 | 39 | 1007.7 |
| 20260501192826 | 62 | 305 | 2.0 | 5.0 | 0.00 | 0.00 | 0.00 | 38 | 1007.8 |
| 20260501191811 | 60 | 337 | 2.0 | 3.0 | 0.00 | 0.00 | 0.00 | 39 | 1007.9 |
| 20260501190757 | 61 | 321 | 1.0 | 6.0 | 0.00 | 0.00 | 0.00 | 40 | 1008.1 |
| 20260501185836 | 60 | 305 | 2.0 | 3.0 | 0.00 | 0.00 | 0.00 | 39 | 1007.9 |
| 20260501184802 | 61 | 314 | 0.0 | 3.0 | 0.00 | 0.00 | 0.00 | 37 | 1008.1 |
| 20260501183821 | 62 | 304 | 2.0 | 2.0 | 0.00 | 0.00 | 0.00 | 37 | 1008.0 |
| 20260501182807 | 61 | 316 | 2.0 | 5.0 | 0.00 | 0.00 | 0.00 | 40 | 1008.1 |
| 20260501181827 | 61 | 169 | 2.0 | 6.0 | 0.00 | 0.00 | 0.00 | 39 | 1008.1 |
| 20260501180811 | 61 | 356 | 2.0 | 3.0 | 0.00 | 0.00 | 0.00 | 39 | 1008.2 |
| 20260501175830 | 60 | 293 | 4.0 | 7.0 | 0.00 | 0.00 | 0.00 | 39 | 1008.6 |
| 20260501174836 | 61 | 317 | 3.0 | 3.0 | 0.00 | 0.00 | 0.00 | 40 | 1008.7 |
| 20260501173822 | 60 | 307 | 1.0 | 5.0 | 0.00 | 0.00 | 0.00 | 44 | 1008.7 |
| 20260501172821 | 60 | 22 | 2.0 | 5.0 | 0.00 | 0.00 | 0.00 | 41 | 1008.6 |
| 20260501171807 | 59 | 297 | 2.0 | 5.0 | 0.00 | 0.00 | 0.00 | 42 | 1008.6 |